GFSMA_925_thetae_000.txt.gz
Theta_e
321 320 320 320 319 320 320 319 318 318 318 318 318 318 318 318 316 314 312 311 309 309 309 309 311 311 310 311 316 320 321 321 322 322 323 324 326 328 328 326 326 327 326
321 321 321 319 317 318 318 318 319 318 317 318 319 319 319 319 317 315 313 311 310 310 310 309 310 310 309 313 316 318 318 319 320 321 322 324 324 326 327 327 326 324 326
321 319 315 313 313 314 316 316 316 317 316 313 311 311 312 314 316 317 315 313 311 310 310 310 310 309 308 308 308 311 318 317 318 319 320 322 323 325 327 327 328 326 324
316 315 314 314 312 312 313 314 313 312 311 311 310 310 309 311 313 314 313 316 315 311 310 310 310 310 309 309 307 310 319 319 319 318 318 319 321 323 325 327 328 327 325
313 312 312 312 311 312 312 311 310 308 307 307 307 306 305 305 306 308 311 313 314 313 311 311 310 310 310 309 308 306 306 317 317 318 319 318 318 320 322 324 327 326 326
311 311 311 310 311 311 310 308 307 306 305 306 305 305 304 304 306 311 310 310 311 312 311 310 310 310 310 309 308 306 308 314 316 317 317 319 318 318 319 321 323 325 325
311 310 309 309 308 308 306 305 305 305 304 304 304 304 304 303 305 305 308 307 304 305 306 307 310 308 308 309 308 307 308 313 314 314 315 315 315 314 316 317 319 321 324
307 307 306 305 305 305 305 304 303 304 305 305 306 306 303 304 304 305 306 304 301 300 299 299 302 304 307 307 309 307 306 309 312 312 312 312 312 312 312 315 316 318 320
305 304 303 302 302 302 302 302 302 302 304 305 306 305 303 302 301 304 302 302 300 299 298 298 298 298 299 304 307 306 308 305 305 309 311 311 310 309 311 311 312 313 314
303 302 301 301 301 301 301 301 301 301 301 303 303 303 302 301 301 301 300 300 299 297 297 297 295 296 298 301 302 305 305 306 306 307 309 310 308 308 309 311 312 310 310
301 300 300 300 301 300 300 299 300 301 300 301 300 300 299 299 299 298 297 296 296 296 296 296 295 297 298 302 304 305 305 305 307 307 306 305 304 307 308 308 312 313 310
300 300 300 300 299 299 298 297 297 297 296 296 296 297 297 298 297 297 296 296 295 296 296 295 295 294 297 298 302 304 305 305 303 303 301 302 302 299 304 307 309 311 313
300 299 300 299 299 298 297 297 296 294 293 293 294 294 295 295 295 295 296 295 295 295 295 294 294 293 293 293 296 301 303 302 302 301 301 301 299 299 299 299 303 309 310
300 299 299 298 297 294 293 292 292 292 291 290 291 292 292 293 294 293 294 293 294 294 294 294 294 293 292 293 294 297 300 301 301 301 301 300 299 299 298 298 299 303 308
299 296 295 295 295 294 292 291 290 289 289 289 289 290 291 291 290 291 291 290 290 292 293 293 292 292 292 292 293 294 297 298 300 300 300 300 298 297 299 298 298 300 304
297 295 294 294 293 291 290 289 289 289 289 290 290 290 288 287 286 286 288 291 291 290 291 290 291 291 290 291 291 292 293 294 297 299 299 299 296 296 296 296 297 297 297
295 294 294 293 291 290 289 289 289 289 289 289 287 286 286 285 285 285 284 285 289 291 291 290 290 289 289 289 289 290 292 293 294 295 296 298 297 296 295 294 294 294 296
293 293 291 290 290 289 289 289 289 288 288 286 286 285 285 285 284 284 284 284 286 286 289 289 288 288 288 287 287 288 290 291 293 293 294 296 296 294 294 294 293 293 292
292 293 290 289 289 289 289 288 288 286 286 285 285 284 282 281 281 281 282 284 285 285 287 287 286 286 286 286 286 286 287 289 290 292 292 293 295 296 294 293 293 293 292
292 292 289 288 288 289 288 287 286 286 285 284 283 283 281 280 281 282 284 285 285 286 286 286 285 285 285 284 284 285 286 287 287 289 291 291 291 294 294 293 293 292 292
292 289 288 288 289 289 288 286 285 285 285 284 283 282 280 280 281 282 283 284 284 284 284 284 284 283 283 283 284 284 284 284 285 288 288 288 288 289 290 291 292 292 292
289 288 289 288 289 288 287 286 286 285 284 284 282 281 280 280 280 281 281 282 283 283 283 283 283 282 283 283 283 283 283 283 284 285 286 285 286 287 287 288 290 291 292
291 290 289 289 288 287 286 285 285 284 284 282 281 280 280 279 280 280 280 281 281 282 282 282 282 283 283 283 283 283 282 283 283 285 285 285 285 285 285 286 287 289 289
291 289 288 288 286 285 285 285 284 283 282 281 280 279 279 279 279 279 280 281 281 281 282 282 281 281 282 282 282 282 283 283 283 284 284 284 284 285 285 285 286 287 287
288 288 287 285 284 284 283 283 281 280 279 278 278 278 278 278 279 280 280 280 280 279 279 280 282 282 282 283 283 283 283 283 283 282 283 283 283 283 283 284 286 286 286
288 287 285 283 282 281 281 280 279 278 277 277 277 277 277 278 278 280 280 280 279 279 278 278 279 279 279 280 280 281 282 283 283 282 283 283 283 283 284 284 284 285 286

GFSMA_925_thetae_003.txt.gz
Theta_e
320 319 320 320 319 318 318 318 318 319 318 317 317 317 317 318 318 318 316 314 312 312 312 311 311 316 318 316 313 310 309 314 319 320 320 321 322 322 324 326 327 326 327
322 321 320 315 313 312 312 312 313 316 316 314 314 313 312 312 313 315 316 316 314 311 311 311 311 310 310 313 315 313 310 308 310 314 317 319 321 323 324 326 326 326 326
322 318 314 314 312 312 312 312 313 313 312 311 310 309 308 307 306 307 309 313 313 315 313 310 310 310 310 310 309 310 313 310 306 307 309 314 317 320 323 323 324 327 326
315 314 312 311 310 310 311 311 310 309 308 307 306 305 305 304 303 305 310 311 312 312 313 313 311 310 311 311 310 309 315 316 316 309 307 309 314 317 320 322 322 325 326
311 311 310 310 309 310 310 307 306 305 306 305 304 303 302 301 300 303 307 308 309 310 309 309 309 311 310 310 311 315 315 316 318 319 315 310 312 314 317 319 321 323 324
310 309 309 309 309 308 306 305 304 304 303 303 302 302 301 300 300 305 305 306 305 304 302 302 302 303 306 308 309 310 314 315 316 317 318 318 313 313 312 315 317 319 321
307 307 306 305 305 304 303 302 302 302 302 302 302 302 301 301 301 304 304 303 301 300 301 300 299 298 299 299 306 307 312 314 315 315 316 316 316 312 309 310 313 315 317
306 306 305 303 302 301 301 301 301 301 301 301 304 303 301 302 303 302 302 301 299 299 299 298 297 297 297 297 298 301 307 309 314 314 314 314 314 313 311 309 311 313 314
304 302 301 300 300 301 300 300 300 301 301 302 302 302 300 300 299 301 299 300 297 298 296 295 295 296 295 295 296 299 302 306 307 309 313 313 312 311 310 310 312 312 311
300 300 299 299 299 299 299 297 298 299 300 298 300 298 298 299 297 297 298 296 297 295 294 295 296 295 295 295 297 302 303 303 305 306 308 311 312 311 309 308 310 312 314
299 299 300 299 299 298 298 297 297 297 296 295 294 295 295 295 297 296 295 295 295 294 294 295 295 295 293 296 297 298 303 304 304 305 307 309 309 307 307 308 308 309 313
302 301 300 299 298 298 297 297 296 294 292 292 292 293 294 294 294 294 294 293 293 294 294 294 295 294 293 293 293 295 301 303 303 304 306 305 304 304 305 308 308 310 310
302 300 299 298 297 296 295 292 291 291 290 289 289 290 290 290 292 292 292 292 292 290 292 293 293 294 294 293 292 294 297 302 302 302 303 304 301 300 300 300 299 301 308
301 299 298 296 294 294 293 291 289 289 289 289 288 288 289 289 288 287 290 290 289 289 290 290 291 292 292 291 292 294 294 298 299 300 301 302 302 301 299 299 298 298 300
299 298 296 295 293 293 291 290 289 289 289 289 289 289 289 288 286 285 285 285 289 288 288 290 291 289 290 289 291 292 293 295 294 296 301 300 301 299 299 299 299 300 298
297 297 296 294 293 291 290 290 289 289 288 288 288 288 287 286 286 285 285 284 284 288 288 289 290 290 290 289 288 290 293 294 293 294 298 296 299 300 299 299 296 297 298
296 295 294 292 292 290 289 289 289 288 288 289 287 286 285 285 284 283 283 283 283 284 286 287 287 289 289 288 289 288 290 292 292 293 294 296 295 298 296 297 295 295 296
292 292 292 292 290 289 288 288 288 288 288 287 285 285 284 283 282 281 281 281 282 283 284 285 288 288 287 287 287 288 287 289 291 292 293 293 294 295 296 296 295 293 293
293 294 293 290 288 288 288 288 288 287 286 285 285 284 283 282 280 280 280 281 282 283 284 284 285 287 287 286 286 286 286 286 288 290 292 292 292 293 295 296 294 293 292
295 292 291 289 288 288 288 288 287 286 285 285 284 283 282 280 280 280 281 282 283 283 283 283 284 285 285 285 284 285 285 285 286 288 288 289 291 291 293 295 294 292 292
291 291 291 288 288 288 288 287 286 285 285 284 284 283 281 280 281 280 281 281 281 282 283 283 283 283 283 283 284 284 283 283 284 284 286 287 287 289 289 291 291 292 292
292 288 290 289 288 288 287 286 285 285 284 283 282 281 280 280 279 279 280 280 281 281 282 282 283 283 282 282 283 283 283 283 282 284 285 285 286 286 286 287 289 290 291
290 290 289 287 287 286 285 285 284 284 283 282 281 279 278 279 278 278 278 279 280 281 281 282 282 282 282 282 283 283 282 282 282 283 284 284 284 285 286 286 286 289 289
291 290 287 286 285 284 283 283 282 281 280 279 277 277 277 277 278 278 279 279 280 279 279 280 281 281 281 281 281 282 282 282 282 283 283 284 283 284 284 285 286 286 287
290 286 285 285 283 281 280 280 279 278 277 276 276 276 277 277 277 279 279 280 280 279 279 279 279 280 281 282 282 282 282 282 282 282 283 283 283 283 283 284 284 286 286
286 286 284 283 281 279 279 279 278 277 276 276 276 276 276 277 278 278 279 279 279 278 279 279 279 279 279 279 280 281 281 282 283 282 283 283 283 283 283 284 284 284 285

GFSMA_925_thetae_006.txt.gz
Theta_e
323 319 320 320 318 316 315 314 313 314 315 315 314 313 312 310 309 310 313 315 316 316 314 313 312 317 318 319 317 314 312 311 310 310 312 315 319 320 321 322 324 326 326
323 320 320 315 312 311 311 311 312 312 312 311 310 309 306 305 303 303 306 308 311 312 314 314 314 312 312 316 318 319 314 311 310 310 309 308 311 316 319 322 323 325 326
321 316 313 311 310 310 310 311 310 309 308 307 306 305 304 303 302 301 302 308 310 311 311 312 313 314 313 312 311 316 319 318 314 311 312 312 310 310 315 319 322 323 324
312 311 310 310 309 309 309 307 306 305 305 304 303 302 302 301 300 300 306 306 307 308 307 305 307 310 312 311 311 311 316 317 318 316 315 313 312 310 309 314 318 321 322
310 310 310 308 308 307 306 304 303 302 302 302 301 300 300 299 300 305 304 304 303 302 302 302 301 301 302 305 308 310 312 316 317 317 318 318 314 312 310 309 313 317 320
309 307 306 306 305 305 304 302 301 300 300 300 297 299 296 299 301 304 303 302 301 301 301 300 299 299 300 299 300 302 308 312 316 317 316 317 318 314 312 310 310 310 314
305 305 304 303 302 301 300 299 298 298 298 300 300 298 297 301 300 300 301 300 300 299 298 297 296 296 297 297 298 298 300 306 310 315 318 316 316 317 314 311 309 308 308
303 302 301 300 299 299 298 297 296 296 298 300 301 301 299 300 301 298 300 298 297 296 296 295 294 294 295 295 296 296 296 298 301 308 310 315 315 315 314 312 310 309 308
301 300 299 300 300 298 298 297 297 296 298 298 299 300 298 298 297 298 297 297 295 295 294 293 293 293 294 294 294 295 295 297 299 301 306 307 313 314 313 312 310 310 310
301 302 302 301 300 298 298 297 297 296 297 296 297 296 295 296 296 296 296 295 294 294 293 293 293 294 294 294 293 295 295 297 300 302 303 306 309 313 313 311 308 308 311
302 301 301 301 299 298 297 296 296 296 294 293 293 293 294 293 295 294 293 292 291 291 292 290 291 293 294 294 294 293 293 296 301 303 304 304 308 311 309 308 308 308 309
302 301 300 299 298 296 295 294 292 291 290 289 289 290 291 291 291 292 290 290 290 290 288 290 291 290 293 293 293 292 293 295 300 302 303 305 306 307 307 307 308 307 310
301 300 299 297 295 293 293 292 290 290 289 288 288 287 288 288 289 289 290 289 289 288 288 287 287 287 291 290 290 291 294 295 297 301 302 302 303 304 303 303 302 303 307
300 299 298 296 294 296 292 291 289 289 288 288 288 288 288 288 288 286 286 287 286 286 286 286 286 285 289 290 290 289 292 296 297 297 299 301 301 302 301 299 298 298 299
299 298 297 295 295 293 292 291 290 289 288 288 288 288 288 288 287 285 285 284 285 285 285 285 286 286 286 288 290 288 290 294 294 293 295 300 301 301 300 300 299 299 298
297 297 296 294 292 292 291 290 289 289 288 288 288 288 287 286 285 285 284 283 282 282 283 284 285 285 284 286 289 289 288 290 293 294 295 297 299 300 300 300 299 300 299
296 295 294 294 293 291 290 289 288 288 288 288 288 286 285 285 284 283 282 281 280 281 282 282 283 284 283 286 289 289 289 288 290 293 293 293 294 297 298 297 297 297 296
295 295 293 292 293 291 289 288 288 288 288 287 286 285 285 284 283 282 281 280 280 280 281 282 283 283 284 288 287 287 288 289 287 290 292 292 292 293 297 296 295 295 295
292 291 293 293 289 289 288 288 288 288 287 285 285 285 283 283 282 281 280 280 280 281 282 283 283 283 284 285 287 287 286 287 287 287 289 290 291 292 294 296 296 295 294
292 292 291 291 289 288 288 288 287 286 285 285 284 283 283 282 281 280 281 280 280 280 281 282 283 283 283 284 285 285 285 284 285 286 287 288 290 291 292 293 294 295 293
292 293 292 289 288 287 287 287 286 285 284 284 283 283 282 281 281 281 280 280 279 280 281 282 282 282 283 282 283 283 283 283 283 283 284 286 287 288 289 292 292 293 293
290 289 288 289 287 287 286 286 285 284 284 283 281 280 279 279 279 279 278 279 279 280 280 281 281 282 282 282 283 282 282 282 283 283 284 285 285 286 286 288 289 291 292
291 291 290 287 287 286 285 283 282 281 281 279 278 277 277 277 277 277 277 278 279 280 280 281 281 281 282 282 281 281 282 282 282 282 282 283 284 284 285 286 288 289 290
291 291 289 286 285 284 282 281 280 279 278 277 276 276 276 276 277 278 279 279 279 279 280 279 280 279 280 281 281 281 281 281 282 282 282 283 283 283 283 284 285 287 288
290 288 286 285 283 281 280 279 279 278 277 276 276 276 276 276 277 279 278 279 279 279 279 279 279 279 279 280 280 282 281 281 281 281 281 283 283 283 283 283 284 285 286
286 286 284 283 282 280 279 278 278 277 276 277 276 276 276 276 277 278 278 277 277 279 278 279 279 278 278 278 278 279 280 282 282 281 282 282 282 282 283 283 284 284 285

GFSMA_925_thetae_009.txt.gz
Theta_e
324 319 319 318 315 312 311 311 311 312 312 311 310 310 307 305 305 306 306 306 308 310 311 313 314 314 316 318 317 316 318 319 317 314 312 314 314 316 319 320 321 322 325
322 320 316 311 311 310 310 310 310 310 309 308 307 306 303 303 303 302 306 303 304 307 309 310 310 312 313 314 316 316 313 313 318 317 314 313 313 311 312 317 320 322 324
317 313 312 312 311 310 309 309 308 306 306 305 305 304 303 302 303 301 303 304 304 305 306 307 307 305 305 307 310 313 316 315 313 317 317 315 314 314 312 311 315 319 322
313 310 310 309 308 307 307 307 305 306 305 304 304 304 303 303 303 306 304 303 303 303 304 304 304 303 302 302 304 307 310 314 316 315 316 317 315 314 313 311 311 315 319
309 308 307 306 306 306 305 303 303 302 304 302 300 302 300 300 305 305 304 303 302 302 301 301 301 301 301 299 299 303 306 309 312 316 318 317 317 317 316 313 312 311 314
306 305 305 304 303 302 301 300 300 301 301 300 298 300 299 300 305 305 303 302 301 300 299 299 298 298 297 297 296 297 302 305 307 310 314 318 317 316 317 316 313 310 309
304 303 302 300 299 300 300 299 298 298 299 300 299 299 298 302 303 301 301 300 299 298 297 297 296 296 296 297 296 295 299 302 304 306 308 311 317 316 316 316 314 310 307
302 300 301 302 302 300 299 298 297 299 299 300 298 298 300 299 299 301 299 298 297 297 296 295 295 295 295 295 296 296 295 298 300 303 305 307 310 314 316 316 315 311 308
303 302 301 301 301 300 299 298 299 299 299 298 299 297 298 298 298 297 297 297 296 294 294 293 293 293 294 295 295 296 295 293 295 299 303 306 307 309 314 315 315 312 308
302 301 301 300 300 299 298 298 297 296 296 295 295 296 296 296 296 295 294 293 293 291 291 292 291 292 292 294 295 295 294 293 293 295 302 304 307 308 312 315 315 312 309
302 301 300 300 299 297 296 295 294 293 293 292 292 292 292 292 292 292 291 291 290 289 290 288 290 290 290 292 293 293 292 293 292 294 300 303 306 308 309 311 313 311 309
302 301 300 299 298 296 294 292 291 290 291 290 290 290 289 289 289 290 290 289 289 288 287 288 288 288 287 289 291 291 290 291 293 295 298 302 302 307 308 310 310 310 308
298 299 299 298 296 293 294 293 292 289 290 290 289 289 289 289 289 289 289 289 289 288 287 287 287 287 287 287 290 291 291 290 292 297 298 300 301 304 305 307 308 309 309
294 294 298 296 294 295 292 292 292 291 291 290 290 290 289 289 290 289 288 288 289 288 287 287 286 286 287 287 287 289 292 289 291 295 294 295 299 302 302 301 303 303 306
294 296 297 295 296 294 293 293 292 292 291 290 290 290 289 289 289 288 287 287 287 288 288 286 285 285 285 285 286 287 290 290 289 294 295 296 298 300 301 301 298 298 298
295 297 296 295 295 295 293 292 291 291 289 290 289 290 289 288 287 286 286 285 284 284 286 284 283 283 283 284 285 286 289 290 289 289 295 294 295 297 298 300 300 299 299
294 296 296 295 295 293 292 290 289 288 288 289 289 288 287 286 286 285 284 283 283 283 283 283 282 283 284 284 285 286 289 290 290 288 291 293 293 293 295 298 300 299 299
292 293 293 293 292 292 292 289 288 288 288 289 288 286 286 285 285 284 283 283 282 282 282 282 283 283 284 285 285 286 288 289 289 289 287 290 291 291 292 296 298 298 297
291 291 292 292 291 291 289 288 288 288 287 286 286 285 285 284 284 284 282 282 282 281 281 282 282 282 283 284 285 286 287 288 288 287 288 288 290 291 291 293 296 296 295
292 293 291 292 291 290 287 287 287 286 286 285 284 284 284 283 282 282 282 282 281 281 280 280 281 282 282 283 284 285 286 287 286 286 286 287 287 290 291 293 295 295 294
293 291 290 287 287 287 287 287 286 286 285 285 284 283 281 281 280 280 280 280 280 280 280 281 281 281 282 282 284 284 285 286 285 285 286 286 288 288 289 292 292 295 293
292 291 290 290 288 286 286 286 285 284 283 282 280 280 279 278 279 278 278 278 279 279 280 281 282 281 281 282 283 284 283 285 286 285 285 286 286 287 287 288 290 291 293
291 291 290 288 288 287 284 283 282 281 280 280 279 278 278 278 278 278 278 279 280 280 279 280 281 281 281 281 282 283 283 283 284 285 284 285 285 285 286 286 289 290 291
290 290 289 288 286 283 282 281 280 280 279 279 278 278 278 278 278 278 279 279 279 279 279 280 280 281 280 280 281 282 282 282 282 283 283 284 284 285 285 285 285 287 288
289 288 287 285 283 282 281 280 279 279 279 278 278 278 277 277 277 278 278 279 278 278 279 279 279 279 280 280 280 280 281 282 283 283 283 283 283 284 284 285 285 285 287
286 285 284 283 282 281 280 279 279 279 278 278 278 277 277 276 277 277 277 278 277 279 278 278 278 279 279 280 279 279 280 282 283 283 283 283 283 284 285 285 285 285 286